Location: Unspecified
(0.0000°N, 0.0000°E)
Time: 06:12:46
(UTC+00:00)

Vanguard 2 - All Passes

Search period start: 05 May 2015 00:00
Search period end: 15 May 2015 00:00
Orbit: 555 x 2943 km, 32.9° (Epoch: 04 May)

Date Brightness Start Highest point End Pass type
(mag) Time Alt. Az. Time Alt. Az. Time Alt. Az.
05 May - 02:06:35 10° WSW 02:21:52 47° NW 02:31:48 10° NNE visible
05 May - 04:30:19 10° NW 04:32:57 11° NNW 04:34:35 10° NNW visible
05 May - 11:05:41 10° N 11:08:21 17° NE 11:11:34 10° E daylight
05 May - 13:11:59 10° WNW 13:16:38 53° SSW 13:23:51 10° SE daylight
05 May - 15:23:14 10° SW 15:27:46 16° SSW 15:33:26 10° SSE daylight
05 May - 17:39:46 10° S 17:42:13 11° S 17:44:55 10° SSE daylight
05 May - 19:49:40 10° SSW 19:58:57 18° SSE 20:10:05 10° ESE visible
05 May - 21:59:14 10° SW 22:15:03 41° SSE 22:30:08 10° E visible
06 May - 00:10:56 10° SW 00:29:08 89° SE 00:42:21 10° NE visible
06 May - 02:27:12 10° W 02:40:56 34° NW 02:50:05 10° NNE visible
06 May - 11:23:31 10° NNW 11:27:11 32° NE 11:31:49 10° ESE daylight
06 May - 13:31:25 10° W 13:35:55 32° SSW 13:42:28 10° SE daylight
06 May - 15:44:54 10° SSW 15:47:48 12° S 15:50:53 10° S daylight
06 May - 18:00:30 10° S 18:02:49 11° S 18:05:39 10° SSE daylight
06 May - 20:08:20 10° SSW 20:19:21 23° SSE 20:32:21 10° ESE visible
06 May - 22:17:57 10° SW 22:34:48 52° SSE 22:50:14 10° ENE visible
07 May - 00:30:22 10° WSW 00:48:19 73° NW 01:01:13 10° NE visible
07 May - 02:48:28 10° W 03:00:09 25° NW 03:08:09 10° NNE visible
07 May - 11:41:58 10° NW 11:45:58 67° NE 11:51:19 10° ESE daylight
07 May - 13:51:22 10° WSW 13:55:24 20° SSW 14:00:41 10° SSE daylight
07 May - 18:19:20 10° S 18:23:25 12° SSE 18:28:36 10° SSE visible
07 May - 20:26:52 10° SSW 20:39:30 29° SSE 20:54:04 10° E visible
07 May - 22:36:44 10° SW 22:54:21 65° SSE 23:09:56 10° ENE visible
08 May - 00:50:09 10° WSW 01:07:29 57° NW 01:19:52 10° NE visible
08 May - 03:10:35 10° WNW 03:19:34 18° NNW 03:25:54 10° N visible
08 May - 09:55:26 10° NNE 09:56:34 11° NNE 09:57:54 10° NE daylight
08 May - 12:00:51 10° WNW 12:04:53 61° SSW 12:10:21 10° SE daylight
08 May - 14:12:13 10° SW 14:15:04 13° SSW 14:18:14 10° S daylight
08 May - 18:37:40 10° S 18:43:54 14° SSE 18:51:57 10° SE visible
08 May - 20:45:23 10° SSW 20:59:25 36° SSE 21:15:09 10° E visible
08 May - 22:55:43 10° SW 23:13:45 81° SE 23:29:16 10° ENE visible
09 May - 01:10:22 10° WSW 01:26:40 44° NW 01:38:22 10° NNE visible
09 May - 03:34:00 10° NW 03:39:14 12° NNW 03:42:56 10° N visible
09 May - 10:12:28 10° NNW 10:15:37 22° NE 10:18:56 10° E daylight
09 May - 12:20:10 10° W 12:23:58 32° SSW 12:28:57 10° SSE daylight
09 May - 18:55:56 10° SSW 19:04:12 18° SSE 19:14:56 10° ESE visible
09 May - 21:03:56 10° SW 21:19:07 46° SSE 21:35:39 10° ENE visible
09 May - 23:14:54 10° WSW 23:33:03 82° NW 23:48:21 10° NE visible
10 May - 01:31:09 10° W 01:45:59 33° NW 01:56:41 10° NNE visible
10 May - 10:30:41 10° NW 10:34:31 46° NE 10:38:38 10° ESE daylight
10 May - 12:40:07 10° WSW 12:43:16 18° SSW 12:47:02 10° SSE daylight
10 May - 19:14:10 10° SSW 19:24:16 24° SSE 19:37:19 10° ESE visible
10 May - 21:22:35 10° SW 21:38:38 58° SE 21:55:41 10° ENE visible
10 May - 23:34:24 10° WSW 23:52:19 66° NW 00:07:10 10° NE visible
11 May - 01:52:36 10° W 02:05:29 25° NNW 02:14:51 10° NNE visible
11 May - 10:49:25 10° WNW 10:53:23 80° SW 10:57:45 10° SE daylight
11 May - 13:01:37 10° SSW 13:02:44 11° SSW 13:03:44 10° S daylight
11 May - 19:32:28 10° SSW 19:44:06 31° SSE 19:58:58 10° E visible
11 May - 21:41:22 10° SW 21:58:01 73° SE 22:15:18 10° ENE visible
11 May - 23:54:16 10° WSW 00:11:37 52° NW 00:25:49 10° NE visible
12 May - 02:14:48 10° WNW 02:25:12 19° NNW 02:32:50 10° N visible
12 May - 09:00:47 10° NNW 09:03:54 18° NNE 09:06:45 10° ENE daylight
12 May - 11:08:38 10° WNW 11:12:19 36° SSW 11:16:25 10° SE daylight
12 May - 17:45:07 10° S 17:49:41 13° SSE 17:55:57 10° SE daylight
12 May - 19:50:50 10° SSW 20:03:41 39° SSE 20:19:58 10° E visible
12 May - 22:00:21 10° SW 22:17:20 89° SE 22:34:34 10° NE visible
13 May - 00:14:36 10° W 00:31:03 41° NNW 00:44:19 10° NNE visible
13 May - 02:37:56 10° NW 02:45:11 14° NNW 02:50:32 10° N visible
13 May - 09:18:50 10° NW 09:23:01 34° NNE 09:26:39 10° E daylight
13 May - 11:28:28 10° WSW 11:31:23 19° SSW 11:34:30 10° SSE daylight
13 May - 18:02:37 10° S 18:09:39 18° SSE 18:19:19 10° ESE visible
13 May - 20:09:19 10° SW 20:23:06 51° SE 20:40:22 10° ENE visible
13 May - 22:19:35 10° WSW 22:36:39 75° NW 22:53:35 10° NE visible
14 May - 00:35:29 10° W 00:50:39 32° NNW 01:02:43 10° NNE visible
14 May - 03:02:37 10° NNW 03:05:22 10° NNW 03:07:11 10° N visible
14 May - 07:31:18 10° N 07:32:27 11° NNE 07:33:42 10° NNE daylight
14 May - 09:37:27 10° NW 09:41:57 74° NE 09:45:53 10° ESE daylight
14 May - 18:20:31 10° SSW 18:29:23 24° SSE 18:41:41 10° E visible
14 May - 20:27:56 10° SW 20:42:24 64° SE 21:00:18 10° ENE visible
14 May - 22:39:08 10° WSW 22:56:01 60° NW 23:12:23 10° NE visible
